Regional Weather Roundup
Issued by NWS

Home | Current Version | Previous Version | Graphics & Text | Print | Product List | Glossary On
Versions: 1 2 3 4 5 6 7 8 9 10 11 12 13 14 15 16 17 18 19 20 21 22 23 24 25 26 27 28 29 30 31 32 33 34 35 36 37 38 39 40 41 42 43 44 45 46 47 48 49 50
000
ASUS43 KOAX 281702
RWRNE

WEATHER ROUNDUP FOR NEBRASKA
NATIONAL WEATHER SERVICE OMAHA NE
1100 AM CST FRI NOV 28 2014

NOTES: SATELLITE DATA IS BEING USED TO AUGMENT CLOUD COVER ABOVE
       12000 FEET.
       "FAIR" INDICATES FEW OR NO CLOUDS BELOW 12,000 FEET WITH NO
       SIGNIFICANT WEATHER AND/OR OBSTRUCTIONS TO VISIBILITY.

  * THESE STATIONS DO NOT REPORT WEATHER SUCH AS RAIN...SNOW OR FOG.

NEZ001>004-019>022-054>056-281800-
NEBRASKA PANHANDLE

CITY           SKY/WX    TMP DP  RH WIND       PRES   REMARKS
SCOTTSBLUFF    PTSUNNY   59  28  30 W9        29.82F
ALLIANCE       MOSUNNY   59  23  25 W20       29.79F
CHADRON        MOSUNNY  N/A N/A N/A W5        29.77F
SIDNEY         PTSUNNY   56  25  30 W10       29.87S
$$

NEZ057>060-069>072-079>082-281800-
SOUTHWEST NEBRASKA

CITY           SKY/WX    TMP DP  RH WIND       PRES   REMARKS
NORTH PLATTE   SUNNY     50  29  44 NW7       29.81F
IMPERIAL       SUNNY     61  27  27 W9        29.84F
MCCOOK         MOSUNNY   58  26  29 W8        29.84F
$$

NEZ005>010-023>029-035>040-094-281800-
NORTH CENTRAL NEBRASKA

CITY           SKY/WX    TMP DP  RH WIND       PRES   REMARKS
VALENTINE      SUNNY     57  27  31 W15G24    29.70F
BROKEN BOW     MOSUNNY   63  29  27 SW15      29.76F
ORD            SUNNY     42  27  55 SE3       29.74F
$$

NEZ041-046>049-061>064-073>077-083>087-281800-
SOUTH CENTRAL NEBRASKA

CITY           SKY/WX    TMP DP  RH WIND       PRES   REMARKS
GRAND ISLAND   MOSUNNY   52  30  43 SW12      29.79F
HASTINGS       MOSUNNY   51  29  42 SW8       29.80F
KEARNEY *      SUNNY     52  28  40 SW9       29.81F
$$

NEZ011>018-030>034-042>045-281800-
NORTHEAST NEBRASKA

CITY           SKY/WX    TMP DP  RH WIND       PRES   REMARKS
NORFOLK        MOSUNNY   41  26  55 VRB3      29.75F
COLUMBUS *     PTSUNNY   37  27  65 S8        29.80F WCI  31
TEKAMAH        MOSUNNY   40  27  59 S9        29.82F WCI  34
$$

NEZ050>053-065>068-078-088>093-281800-
SOUTHEAST NEBRASKA

CITY           SKY/WX    TMP DP  RH WIND       PRES   REMARKS
LINCOLN        MOSUNNY   43  26  51 S8        29.84F
OMAHA EPPLEY   PTSUNNY   38  26  62 S13       29.85F WCI  30
FALLS CITY     SUNNY     47  29  49 S8        29.88F
$$

NEZ044-045-051>053-067-281800-
OMAHA AREA

CITY           SKY/WX    TMP DP  RH WIND       PRES   REMARKS
OMAHA EPPLEY   PTSUNNY   38  26  62 S13       29.85F WCI  30
OFFUTT AFB     MOSUNNY   39  27  62 S7        29.84F WCI  34
$$



USA.gov is the U.S. government's official web portal to all federal, state and local government web resources and services.